| time (UTC) | temp F | wind direction | speed MPH | gust MPH | rain 1hr in | rain 24hr in | rain mn in | humidity % | barometer mb |
| 20260903143502 | 79 | 340 | 3.0 | 0.0 | 0.00 | 0.00 | 0.00 | 37 | 1017.0 |
| 20260903140502 | 79 | 360 | 6.0 | 0.0 | 0.00 | 0.00 | 0.00 | 39 | 1017.0 |
| 20260903133501 | 79 | 320 | 6.0 | 0.0 | 0.00 | 0.00 | 0.00 | 37 | 1017.0 |
| 20260903130502 | 79 | 6.0 | 0.0 | 0.00 | 0.00 | 0.00 | 39 | 1017.0 | |
| 20260903123502 | 79 | 350 | 7.0 | 0.0 | 0.00 | 0.00 | 0.00 | 39 | 1017.0 |
| 20260903120502 | 79 | 330 | 8.0 | 0.0 | 0.00 | 0.00 | 0.00 | 39 | 1018.0 |
| 20260903113502 | 77 | 320 | 8.0 | 0.0 | 0.00 | 0.00 | 0.00 | 42 | 1018.0 |
| 20260903110502 | 77 | 6.0 | 0.0 | 0.00 | 0.00 | 0.00 | 44 | 1018.0 | |
| 20260903103503 | 75 | 320 | 7.0 | 0.0 | 0.00 | 0.00 | 0.00 | 47 | 1019.0 |
| 20260903100503 | 77 | 290 | 7.0 | 0.0 | 0.00 | 0.00 | 0.00 | 44 | 1019.0 |
| 20260903093502 | 75 | 330 | 8.0 | 0.0 | 0.00 | 0.00 | 0.00 | 47 | 1019.0 |
| 20260903090502 | 75 | 320 | 7.0 | 0.0 | 0.00 | 0.00 | 0.00 | 50 | 1019.0 |
| 20260903083502 | 73 | 2.0 | 0.0 | 0.00 | 0.00 | 0.00 | 53 | 1020.0 | |
| 20260903080503 | 73 | 360 | 5.0 | 0.0 | 0.00 | 0.00 | 0.00 | 50 | 1020.0 |
| 20260903073502 | 73 | 6.0 | 0.0 | 0.00 | 0.00 | 0.00 | 53 | 1020.0 | |
| 20260903070502 | 70 | 310 | 7.0 | 0.0 | 0.00 | 0.00 | 0.00 | 64 | 1020.0 |
| 20260903063503 | 68 | 290 | 5.0 | 0.0 | 0.00 | 0.00 | 0.00 | 69 | 1019.0 |
| 20260903060502 | 64 | 250 | 3.0 | 0.0 | 0.00 | 0.00 | 0.00 | 78 | 1020.0 |
| 20260903053502 | 63 | 2.0 | 0.0 | 0.00 | 0.00 | 0.00 | 83 | 1020.0 | |
| 20260903050503 | 63 | 270 | 3.0 | 0.0 | 0.00 | 0.00 | 0.00 | 83 | 1020.0 |
| 20260903043502 | 64 | 200 | 3.0 | 0.0 | 0.00 | 0.00 | 0.00 | 73 | 1019.0 |
| 20260903040502 | 61 | 310 | 8.0 | 0.0 | 0.00 | 0.00 | 0.00 | 83 | 1019.0 |
| 20260903033502 | 63 | 320 | 9.0 | 0.0 | 0.00 | 0.00 | 0.00 | 77 | 1019.0 |
| 20260903030502 | 63 | 250 | 5.0 | 0.0 | 0.00 | 0.00 | 0.00 | 77 | 1019.0 |
| 20260903023502 | 64 | 340 | 8.0 | 0.0 | 0.00 | 0.00 | 0.00 | 73 | 1019.0 |
| 20260903020501 | 64 | 2.0 | 0.0 | 0.00 | 0.00 | 0.00 | 73 | 1019.0 | |
| 20260903013503 | 66 | 20 | 8.0 | 0.0 | 0.00 | 0.00 | 0.00 | 64 | 1019.0 |
| 20260903010502 | 66 | 20 | 8.0 | 0.0 | 0.00 | 0.00 | 0.00 | 64 | 1019.0 |
| 20260903003502 | 66 | 340 | 10.0 | 0.0 | 0.00 | 0.00 | 0.00 | 68 | 1019.0 |
| 20260903000502 | 64 | 270 | 3.0 | 0.0 | 0.00 | 0.00 | 0.00 | 78 | 1019.0 |
| 20260902233501 | 64 | 260 | 5.0 | 0.0 | 0.00 | 0.00 | 0.00 | 78 | 1019.0 |
| 20260902230501 | 64 | 310 | 6.0 | 0.0 | 0.00 | 0.00 | 0.00 | 73 | 1019.0 |
| 20260902223502 | 66 | 290 | 3.0 | 0.0 | 0.00 | 0.00 | 0.00 | 73 | 1019.0 |
| 20260902220502 | 66 | 300 | 3.0 | 0.0 | 0.00 | 0.00 | 0.00 | 73 | 1019.0 |
| 20260902213502 | 68 | 330 | 3.0 | 0.0 | 0.00 | 0.00 | 0.00 | 64 | 1019.0 |
| 20260902210502 | 66 | 270 | 3.0 | 0.0 | 0.00 | 0.00 | 0.00 | 78 | 1019.0 |
| 20260902203502 | 70 | 320 | 3.0 | 0.0 | 0.00 | 0.00 | 0.00 | 64 | 1019.0 |
| 20260902200502 | 70 | 320 | 3.0 | 0.0 | 0.00 | 0.00 | 0.00 | 64 | 1019.0 |
| 20260902193502 | 70 | 290 | 3.0 | 0.0 | 0.00 | 0.00 | 0.00 | 69 | 1019.0 |
| 20260902190502 | 70 | 350 | 3.0 | 0.0 | 0.00 | 0.00 | 0.00 | 69 | 1019.0 |
| 20260902183502 | 70 | 280 | 2.0 | 0.0 | 0.00 | 0.00 | 0.00 | 69 | 1019.0 |
| 20260902180502 | 72 | 2.0 | 0.0 | 0.00 | 0.00 | 0.00 | 61 | 1019.0 | |
| 20260902173502 | 73 | 310 | 3.0 | 0.0 | 0.00 | 0.00 | 0.00 | 57 | 1018.0 |
| 20260902170502 | 75 | 310 | 3.0 | 0.0 | 0.00 | 0.00 | 0.00 | 54 | 1018.0 |
| 20260902163502 | 75 | 310 | 5.0 | 0.0 | 0.00 | 0.00 | 0.00 | 57 | 1018.0 |
| 20260902160503 | 75 | 310 | 5.0 | 0.0 | 0.00 | 0.00 | 0.00 | 57 | 1018.0 |
| 20260902153503 | 77 | 320 | 5.0 | 0.0 | 0.00 | 0.00 | 0.00 | 51 | 1018.0 |
| 20260902150502 | 79 | 3.0 | 0.0 | 0.00 | 0.00 | 0.00 | 48 | 1018.0 |